Wind_Speed
10 9 8 7 6 5 4 4 4 5 5 5 4 3 2 1 2 3 3 4 4 4 4 4 5 6 7 8 9 11 12 13 14 15 16 16 16 17 17 17 17 17 17 18 18 18 18 19 19
13 12 10 10 9 8 7 6 6 6 5 4 3 2 1 1 2 3 4 5 5 5 6 6 7 8 9 11 12 13 14 15 15 16 16 17 17 17 18 18 19 19 20 21 21 22 22 23 23
14 13 12 11 10 8 7 6 6 5 4 3 2 1 2 3 4 5 6 6 7 7 8 9 10 11 12 13 14 14 15 15 15 15 16 16 17 17 18 19 20 21 22 23 24 25 25 26 27
12 11 10 9 8 7 5 4 3 2 1 1 2 3 4 5 6 7 8 8 9 10 10 11 12 13 13 14 14 14 14 14 14 15 15 16 17 18 19 19 20 21 22 24 25 26 27 28 29
8 7 6 5 4 3 2 1 1 2 3 4 6 7 7 8 9 9 10 10 11 12 12 13 13 13 13 13 13 13 13 14 14 15 15 16 17 18 19 20 20 21 22 23 24 25 26 27 28
4 4 3 2 2 3 3 4 5 6 7 7 9 10 11 11 11 11 12 12 13 13 13 13 13 13 12 12 12 12 13 13 14 15 16 17 18 19 19 20 21 21 22 23 24 24 25 26 27
4 5 5 5 6 7 7 8 9 9 10 11 11 12 13 13 14 14 14 14 14 14 14 13 12 12 11 11 11 12 13 14 16 17 17 18 19 20 21 22 22 23 24 24 25 25 26 27 27
7 8 9 9 9 10 11 11 11 12 12 13 13 13 15 15 15 15 15 15 14 14 13 12 12 11 10 10 11 13 14 16 17 18 19 20 21 22 23 24 25 26 26 27 27 28 29 29 30
9 10 11 11 12 12 13 12 12 13 13 14 14 14 15 15 16 15 15 15 14 13 12 11 10 10 10 11 12 14 15 17 18 19 20 21 22 23 24 26 27 28 29 30 31 32 33 33 34
10 11 12 12 12 12 13 13 12 13 14 14 14 14 15 15 16 15 15 14 13 13 12 11 10 10 10 11 13 14 15 17 18 19 20 21 22 23 25 26 28 29 30 31 32 34 35 37 37
12 12 12 12 12 12 13 13 13 14 15 14 14 15 15 15 15 15 14 13 13 12 12 11 10 10 11 12 13 14 15 16 18 19 20 21 23 24 25 27 28 30 31 32 33 35 36 38 39
13 13 13 13 13 13 13 13 13 14 14 13 14 14 15 15 15 14 14 13 13 13 12 12 11 11 12 12 13 15 16 17 18 20 21 22 24 25 27 28 30 31 33 34 35 36 38 39 41
14 14 14 14 14 13 13 13 14 16 13 13 15 15 14 14 14 14 13 14 14 14 14 14 13 13 14 15 15 17 18 19 20 21 23 24 26 27 29 31 33 34 36 37 38 39 40 41 42
16 16 16 16 15 15 14 14 16 17 14 15 15 15 15 15 15 15 15 15 15 16 16 16 16 16 17 17 18 19 20 22 23 24 26 27 29 30 32 33 36 38 40 41 42 42 43 43 44
18 18 18 18 17 16 15 15 19 17 16 17 17 17 16 17 17 17 17 17 17 18 18 18 19 19 20 21 22 23 24 25 26 28 29 31 32 34 35 37 38 41 43 45 46 47 46 47 47
20 20 20 20 20 18 17 14 22 19 18 19 19 19 19 19 19 19 19 20 20 20 21 21 22 22 23 24 25 26 28 29 30 31 33 34 35 37 38 40 42 44 46 48 50 51 51 50 50
22 22 22 23 22 20 19 14 21 24 22 20 21 21 21 21 21 23 23 23 23 23 24 24 25 26 27 28 28 30 31 32 34 35 36 37 38 40 41 43 45 47 49 51 53 54 54 53 53
24 24 23 25 24 22 20 17 18 26 26 24 24 24 24 23 24 26 25 25 26 26 26 27 28 30 31 31 32 33 35 36 38 39 40 41 42 43 45 46 48 49 51 54 56 57 57 56 55
27 26 25 25 26 24 21 19 19 25 28 27 26 26 26 26 28 28 27 28 28 29 30 31 32 33 34 34 36 37 38 40 41 43 44 45 46 47 48 50 51 53 54 57 59 60 59 58 57
27 27 26 26 26 25 21 18 21 24 26 28 28 28 28 29 30 30 30 30 31 32 33 34 35 36 37 38 40 40 42 43 45 46 48 49 49 50 52 53 54 56 58 60 62 62 61 60 59
26 27 26 26 25 24 23 16 19 23 26 28 29 30 30 30 32 33 33 33 33 34 35 37 38 39 40 42 43 44 45 46 47 49 51 52 53 54 55 56 58 59 61 62 64 64 63 61 60
24 26 26 26 26 25 25 21 19 23 25 28 29 30 31 32 33 34 35 35 36 37 39 40 41 43 44 46 47 48 49 49 51 53 54 55 57 57 58 59 60 62 63 64 66 65 63 62 61
24 26 27 27 27 26 26 25 22 24 25 27 29 30 31 32 34 35 36 37 39 40 42 43 45 46 48 49 50 51 52 53 55 56 57 58 60 60 61 62 63 64 65 66 67 65 64 63 62
25 27 28 28 28 27 27 26 24 26 26 27 29 31 31 32 33 35 37 38 40 42 44 46 48 49 51 52 54 55 56 57 59 59 60 61 62 62 63 64 66 66 67 67 67 65 64 64 64
27 29 31 32 30 29 28 28 25 28 30 31 31 31 32 32 33 34 36 38 41 43 46 48 50 51 53 55 56 57 59 60 61 62 63 64 64 64 64 66 67 67 67 67 67 66 66 65 64
28 30 32 35 35 33 31 29 27 30 32 33 34 35 35 35 35 36 37 39 41 43 46 48 50 52 54 55 57 59 60 62 63 64 65 66 66 66 66 67 67 68 67 67 67 67 66 65 65
30 31 34 37 39 38 36 33 28 30 33 36 39 40 39 38 38 38 39 40 41 43 45 47 50 52 54 55 57 59 61 62 63 64 65 66 66 66 66 66 67 67 67 68 68 67 66 66 66
32 34 36 38 41 44 43 38 33 34 37 39 41 42 41 40 41 41 41 42 42 44 46 47 49 51 53 55 57 58 60 61 63 64 64 65 65 66 66 66 67 67 68 68 68 67 67 67 67
33 34 37 39 41 45 48 46 39 39 40 43 45 45 44 43 43 43 43 43 44 45 46 47 49 50 52 54 55 57 59 61 62 63 63 64 65 65 65 66 67 68 68 68 67 67 67 66 67
37 38 39 41 44 46 50 50 41 41 45 49 50 49 48 47 47 46 45 45 45 46 46 48 49 50 51 52 53 55 57 58 59 60 62 63 64 64 65 66 67 68 67 67 66 66 66 66 66
Wind_Direction
97 98 99 101 102 102 105 110 114 120 122 124 126 134 146 177 218 241 256 246 251 258 265 273 285 293 297 299 301 300 299 299 299 298 297 297 297 296 295 293 291 289 287 285 283 282 279 277 275
92 92 93 95 97 98 99 100 107 111 115 119 125 138 167 241 261 264 266 268 270 275 280 286 292 296 299 301 302 301 300 299 299 298 297 297 297 296 295 295 294 292 291 289 287 285 284 282 280
88 88 91 91 93 95 98 96 97 101 106 113 133 184 250 268 273 274 274 276 278 283 287 290 293 295 298 300 301 301 301 301 301 300 299 298 298 297 296 295 295 293 292 291 290 288 287 285 283
85 86 88 89 91 92 93 89 85 84 73 291 277 274 273 275 277 278 278 279 282 285 288 290 292 294 297 299 301 302 303 305 304 304 303 302 301 300 300 298 297 296 294 292 291 290 288 287 285
75 76 78 79 78 77 69 41 328 300 288 282 280 279 277 276 275 276 276 278 280 283 286 289 292 295 298 300 303 305 306 307 308 308 307 306 306 305 304 302 301 299 297 295 293 291 290 288 287
50 37 29 6 331 310 303 296 291 288 284 281 278 278 277 275 274 274 275 277 280 282 285 288 292 295 298 302 305 309 310 312 312 312 311 311 310 308 306 305 303 301 299 297 295 293 292 291 289
350 333 315 305 297 292 291 289 287 284 282 279 276 274 274 274 274 274 275 276 279 281 284 287 291 295 300 304 309 312 314 314 313 313 312 311 310 309 307 305 303 301 300 298 297 296 294 293 291
325 314 304 298 294 289 287 285 283 281 280 278 275 273 273 274 274 274 275 276 278 280 282 285 290 294 300 305 310 313 314 314 313 312 311 310 309 309 307 305 303 301 299 298 296 295 294 292 291
312 304 298 296 291 285 284 282 281 280 278 277 275 273 272 273 275 275 274 274 276 277 279 283 287 292 299 305 309 312 313 313 312 312 311 310 309 308 306 305 303 301 299 297 295 294 292 291 290
311 301 296 295 289 284 282 281 279 278 279 278 277 275 274 274 274 274 273 272 272 273 274 277 282 289 297 303 307 309 311 312 312 312 312 312 312 311 310 308 306 304 302 300 297 295 292 291 289
315 305 299 296 290 284 279 279 279 279 278 279 278 275 274 274 273 272 270 269 268 268 268 271 276 284 292 298 303 306 309 311 312 313 314 315 315 315 314 312 311 309 307 304 301 298 295 293 291
317 309 304 297 292 287 283 281 281 280 278 279 276 274 273 272 271 268 266 265 264 263 263 266 271 279 286 292 297 302 307 310 312 313 314 316 317 317 317 317 316 314 312 309 306 302 299 296 293
316 313 306 300 295 291 288 285 282 280 282 282 277 275 273 269 266 264 262 261 259 259 261 264 270 275 281 288 294 300 304 307 309 310 312 313 315 316 318 319 319 318 316 314 311 307 303 300 297
314 315 310 303 298 293 290 287 280 280 284 279 277 276 273 269 265 262 260 259 259 259 261 265 270 275 280 286 292 296 300 303 306 307 308 310 311 313 315 316 318 318 318 317 315 311 307 303 300
309 311 310 305 301 295 291 289 281 281 280 278 277 276 273 269 266 263 262 262 261 261 263 265 269 274 278 284 289 293 296 299 302 305 306 308 309 310 311 313 315 317 317 317 316 314 311 307 303
303 305 306 304 302 299 295 291 284 282 277 277 277 275 273 270 267 266 265 263 263 263 264 266 270 273 277 282 287 290 293 297 299 302 304 306 308 308 309 310 312 314 315 316 316 315 312 309 306
296 299 301 300 300 301 299 292 284 284 280 276 274 274 272 272 270 267 267 266 266 266 267 269 270 273 277 281 285 288 291 294 297 300 302 304 306 307 308 309 310 311 313 314 315 314 312 309 306
292 294 296 296 299 301 302 299 284 282 282 279 276 274 273 271 269 269 271 270 269 269 270 270 271 273 276 280 283 286 290 292 295 298 300 302 304 305 307 308 309 309 311 312 313 313 311 308 306
289 291 292 294 297 300 303 305 292 283 283 281 279 276 274 271 269 271 271 270 270 270 270 270 272 273 276 279 281 285 288 291 294 296 298 300 302 304 305 306 307 308 309 310 311 311 310 308 305
288 289 291 293 296 299 302 309 299 290 287 285 282 279 277 273 271 270 269 268 269 269 269 270 271 273 276 278 280 284 287 290 292 294 296 298 300 302 303 304 305 306 307 309 309 309 308 307 305
290 291 292 294 296 300 301 306 301 296 292 288 285 282 279 276 273 272 271 269 269 269 269 269 271 273 276 278 280 283 285 288 291 292 295 297 299 300 301 302 303 304 306 307 307 307 307 306 304
294 293 295 296 299 302 303 305 304 300 297 293 289 286 283 280 277 275 274 272 271 270 271 272 273 274 276 277 280 282 285 288 289 291 294 296 297 298 300 300 301 302 304 305 305 305 305 305 304
297 296 296 297 299 302 303 305 307 300 298 295 292 289 287 284 281 279 277 275 274 274 274 274 274 275 277 278 281 283 286 287 289 291 293 294 296 297 298 298 299 300 302 303 303 304 304 304 304
298 298 297 297 299 300 302 304 307 301 298 296 294 293 291 289 287 284 282 280 278 278 277 277 278 278 279 280 283 285 286 287 289 291 292 293 295 296 297 296 297 299 300 301 302 303 304 304 304
298 299 300 300 300 301 303 306 310 306 303 300 297 295 293 292 291 289 288 286 284 282 281 281 281 281 282 283 285 286 287 288 290 291 291 292 294 294 294 294 296 297 299 300 302 303 304 304 304
298 299 300 301 302 302 303 305 311 308 303 300 297 296 294 294 294 294 292 290 288 286 285 285 285 284 285 285 286 287 287 288 289 290 291 292 293 293 292 293 295 297 298 300 302 303 304 304 304
297 298 299 300 300 301 301 303 307 305 300 298 296 296 297 298 298 296 295 293 292 290 288 287 286 285 285 286 286 286 287 288 288 289 290 291 291 291 292 293 295 296 298 300 301 303 303 304 304
298 299 300 300 302 303 302 303 310 306 301 297 296 296 299 299 298 297 295 294 293 291 289 288 287 286 286 286 286 286 287 287 288 288 290 290 290 291 293 294 296 297 298 300 302 303 303 303 303
297 298 298 299 300 301 302 303 312 307 302 298 297 298 299 298 297 296 295 294 293 291 290 289 288 287 287 286 286 286 286 286 287 288 289 290 291 292 294 295 297 298 299 300 301 302 302 301 302
296 297 298 299 300 300 300 303 309 305 300 298 299 300 300 299 299 298 296 295 294 293 292 291 290 289 288 288 287 286 286 287 288 289 290 290 291 293 294 296 297 298 299 299 300 300 300 300 301
Height
5880 5880 5881 5882 5883 5883 5883 5883 5882 5882 5883 5883 5883 5884 5884 5884 5885 5887 5885 5883 5882 5882 5882 5881 5881 5880 5879 5879 5878 5877 5876 5875 5874 5873 5872 5871 5870 5869 5868 5867 5866 5865 5865 5864 5864 5863 5863 5863 5862
5881 5882 5883 5883 5883 5883 5884 5883 5883 5883 5884 5884 5884 5884 5884 5884 5884 5884 5883 5882 5882 5881 5881 5880 5880 5879 5878 5877 5876 5875 5874 5873 5871 5870 5869 5868 5867 5866 5864 5863 5862 5861 5860 5860 5859 5859 5858 5858 5857
5883 5884 5885 5884 5884 5884 5885 5884 5884 5884 5884 5884 5884 5883 5884 5884 5883 5883 5882 5882 5881 5880 5880 5879 5878 5877 5876 5875 5874 5873 5871 5870 5869 5868 5866 5865 5864 5862 5861 5860 5859 5857 5856 5855 5854 5853 5853 5852 5851
5886 5886 5886 5886 5885 5885 5885 5885 5884 5884 5884 5884 5883 5883 5883 5883 5882 5882 5881 5880 5880 5879 5878 5877 5876 5875 5874 5873 5871 5870 5869 5867 5866 5865 5863 5862 5861 5859 5858 5856 5855 5853 5852 5851 5849 5848 5847 5846 5845
5887 5887 5887 5886 5886 5885 5884 5884 5884 5883 5883 5883 5882 5882 5881 5881 5880 5880 5879 5878 5878 5877 5876 5875 5873 5872 5871 5870 5868 5867 5866 5864 5863 5862 5860 5858 5857 5855 5854 5852 5851 5849 5847 5846 5844 5843 5841 5840 5839
5888 5887 5887 5886 5886 5885 5884 5883 5882 5882 5882 5881 5881 5880 5880 5879 5878 5877 5877 5876 5875 5874 5873 5872 5871 5869 5868 5867 5865 5864 5863 5861 5860 5858 5857 5855 5853 5851 5850 5848 5846 5845 5843 5841 5839 5838 5836 5834 5833
5888 5887 5886 5885 5884 5884 5883 5881 5881 5880 5880 5879 5878 5878 5877 5876 5875 5874 5874 5873 5872 5871 5870 5868 5867 5866 5865 5863 5862 5861 5859 5858 5856 5855 5853 5851 5849 5848 5846 5844 5842 5840 5838 5837 5835 5833 5831 5829 5827
5886 5886 5885 5884 5883 5882 5881 5879 5878 5878 5877 5876 5875 5875 5874 5873 5872 5871 5870 5870 5869 5868 5866 5865 5864 5863 5861 5860 5859 5857 5856 5854 5853 5851 5849 5847 5845 5843 5841 5839 5837 5835 5833 5831 5829 5827 5825 5823 5821
5885 5885 5882 5881 5880 5879 5878 5876 5876 5875 5874 5872 5872 5871 5870 5869 5868 5868 5867 5866 5865 5864 5863 5862 5861 5859 5858 5857 5855 5854 5852 5851 5849 5847 5845 5843 5841 5839 5837 5835 5832 5830 5828 5825 5823 5821 5818 5816 5814
5882 5881 5880 5879 5878 5876 5875 5874 5873 5871 5870 5869 5868 5867 5866 5865 5864 5864 5863 5862 5861 5861 5860 5858 5857 5856 5855 5854 5852 5851 5849 5847 5845 5843 5841 5839 5836 5834 5831 5829 5826 5824 5821 5819 5816 5813 5810 5808 5805
5880 5879 5877 5876 5874 5873 5872 5871 5869 5868 5867 5866 5865 5864 5862 5861 5861 5860 5859 5858 5858 5857 5856 5855 5854 5853 5852 5850 5849 5847 5846 5844 5841 5839 5837 5834 5831 5829 5826 5823 5820 5817 5814 5811 5808 5805 5802 5798 5795
5878 5876 5874 5873 5871 5870 5869 5868 5866 5865 5863 5863 5861 5860 5859 5858 5857 5856 5855 5855 5854 5853 5852 5851 5850 5849 5848 5847 5845 5843 5842 5839 5837 5835 5832 5829 5826 5823 5820 5817 5813 5810 5807 5803 5800 5796 5792 5788 5785
5875 5874 5872 5870 5868 5867 5866 5864 5863 5861 5860 5859 5857 5856 5855 5854 5853 5853 5852 5851 5850 5849 5848 5847 5846 5845 5844 5842 5841 5839 5837 5835 5832 5830 5827 5824 5821 5817 5814 5810 5806 5803 5799 5795 5791 5787 5783 5778 5774
5873 5871 5869 5866 5865 5864 5863 5861 5859 5857 5857 5855 5854 5853 5852 5851 5850 5849 5848 5847 5846 5845 5844 5843 5842 5840 5839 5837 5836 5834 5831 5829 5827 5824 5821 5818 5814 5810 5807 5803 5799 5795 5790 5786 5782 5777 5773 5768 5763
5869 5868 5866 5863 5861 5860 5860 5858 5854 5854 5852 5851 5850 5849 5848 5847 5846 5845 5844 5843 5842 5841 5840 5839 5837 5835 5834 5832 5830 5828 5825 5823 5820 5817 5814 5811 5807 5803 5799 5795 5791 5786 5781 5777 5772 5767 5762 5757 5752
5866 5864 5863 5860 5858 5856 5857 5856 5850 5849 5848 5847 5846 5844 5843 5842 5841 5840 5839 5838 5837 5836 5835 5834 5832 5830 5828 5826 5824 5822 5819 5816 5813 5810 5807 5803 5799 5795 5791 5786 5782 5777 5772 5767 5762 5756 5751 5746 5740
5862 5861 5858 5856 5854 5853 5852 5852 5847 5843 5842 5842 5841 5839 5838 5837 5836 5834 5833 5832 5831 5830 5829 5828 5826 5824 5822 5820 5818 5815 5812 5809 5806 5802 5799 5795 5791 5786 5782 5777 5773 5767 5762 5757 5751 5745 5739 5734 5728
5858 5856 5854 5851 5850 5849 5847 5847 5843 5838 5837 5836 5835 5833 5832 5831 5830 5828 5827 5826 5825 5824 5822 5821 5820 5817 5815 5813 5810 5808 5805 5801 5797 5794 5790 5786 5782 5777 5772 5767 5762 5757 5751 5746 5740 5734 5728 5721 5715
5852 5851 5850 5847 5845 5844 5843 5841 5838 5833 5831 5830 5828 5827 5825 5824 5822 5821 5820 5819 5818 5817 5815 5813 5812 5810 5807 5805 5802 5800 5796 5793 5789 5785 5780 5776 5772 5767 5762 5757 5751 5746 5740 5734 5728 5721 5715 5708 5701
5846 5845 5844 5843 5840 5839 5838 5837 5831 5827 5825 5823 5821 5819 5818 5817 5815 5813 5812 5811 5810 5809 5807 5805 5803 5801 5799 5796 5793 5791 5787 5784 5779 5775 5770 5766 5762 5757 5751 5745 5740 5734 5728 5722 5715 5708 5701 5695 5688
5841 5839 5838 5837 5835 5834 5833 5834 5828 5823 5819 5816 5814 5812 5810 5809 5807 5806 5805 5803 5802 5800 5798 5796 5794 5791 5789 5786 5783 5780 5777 5773 5769 5764 5759 5755 5750 5745 5740 5734 5728 5722 5716 5709 5702 5695 5688 5681 5674
5836 5834 5832 5831 5829 5828 5827 5826 5824 5818 5813 5810 5807 5805 5803 5801 5799 5798 5796 5795 5793 5791 5788 5786 5784 5781 5779 5775 5773 5769 5766 5762 5758 5753 5749 5743 5738 5733 5728 5721 5715 5709 5703 5696 5689 5682 5675 5667 5660
5830 5828 5827 5825 5823 5823 5821 5819 5819 5813 5809 5804 5800 5798 5796 5794 5792 5790 5788 5786 5784 5782 5779 5777 5774 5771 5768 5764 5761 5758 5755 5751 5746 5742 5737 5731 5725 5720 5714 5708 5701 5695 5689 5682 5675 5668 5661 5653 5645
5825 5823 5821 5820 5818 5818 5815 5813 5811 5806 5802 5798 5794 5791 5788 5786 5784 5782 5779 5777 5775 5772 5770 5767 5764 5761 5757 5753 5750 5747 5743 5738 5734 5729 5724 5718 5713 5707 5700 5693 5687 5681 5675 5667 5660 5653 5646 5638 5630
5820 5818 5815 5812 5811 5811 5808 5806 5805 5799 5794 5790 5787 5784 5781 5779 5777 5774 5771 5768 5766 5763 5760 5757 5754 5750 5747 5743 5739 5735 5730 5725 5721 5716 5710 5704 5699 5693 5686 5678 5673 5666 5659 5652 5645 5637 5630 5622 5614
5815 5812 5809 5805 5803 5802 5801 5799 5799 5793 5787 5782 5779 5776 5774 5772 5769 5766 5763 5760 5757 5754 5750 5747 5743 5739 5735 5731 5727 5722 5717 5712 5707 5701 5695 5689 5684 5677 5670 5664 5657 5651 5644 5637 5629 5622 5614 5606 5598
5809 5806 5803 5798 5794 5793 5793 5792 5793 5787 5780 5775 5771 5767 5765 5763 5760 5757 5754 5750 5747 5743 5739 5735 5731 5727 5722 5718 5713 5708 5703 5697 5692 5686 5679 5674 5667 5661 5655 5648 5642 5635 5628 5621 5614 5606 5598 5590 5582
5802 5799 5796 5791 5786 5782 5781 5782 5784 5778 5772 5767 5762 5758 5757 5755 5751 5747 5743 5739 5735 5731 5727 5723 5718 5714 5709 5704 5699 5694 5688 5682 5676 5670 5664 5658 5651 5645 5639 5633 5626 5619 5612 5605 5598 5591 5582 5574 5565
5796 5793 5788 5784 5780 5775 5769 5771 5773 5767 5760 5755 5751 5749 5747 5744 5740 5736 5732 5728 5723 5719 5714 5709 5704 5699 5694 5689 5684 5678 5673 5666 5660 5654 5648 5642 5635 5629 5623 5617 5610 5604 5597 5589 5582 5575 5566 5558 5549
5787 5785 5781 5778 5772 5766 5760 5761 5762 5756 5748 5742 5739 5736 5734 5730 5727 5723 5719 5715 5710 5706 5701 5696 5691 5685 5680 5674 5669 5663 5657 5651 5645 5639 5633 5626 5620 5614 5608 5601 5594 5588 5581 5573 5566 5558 5550 5541 5533